TimeHST,TemperatureF,Dew PointF,Humidity,Sea Level PressureIn,VisibilityMPH,Wind Direction,Wind SpeedMPH,Gust SpeedMPH,PrecipitationIn,Events,Conditions,WindDirDegrees,DateUTC
12:53 AM,68.0,61.0,78,29.99,10.0,SW,3.5,-,N/A,,Overcast,230,2013-03-24 10:53:00
1:53 AM,68.0,61.0,78,29.99,10.0,SSW,4.6,-,N/A,,Overcast,210,2013-03-24 11:53:00
2:53 AM,66.9,61.0,81,29.97,10.0,SSW,4.6,-,N/A,,Overcast,210,2013-03-24 12:53:00
3:53 AM,66.9,61.0,81,29.96,10.0,South,4.6,-,N/A,,Overcast,190,2013-03-24 13:53:00
4:53 AM,66.0,59.0,78,29.96,10.0,SW,6.9,-,N/A,,Overcast,230,2013-03-24 14:53:00
5:53 AM,66.0,57.0,73,29.98,10.0,SSW,3.5,-,N/A,,Overcast,210,2013-03-24 15:53:00
6:53 AM,66.0,59.0,78,30.00,10.0,WSW,4.6,-,N/A,,Overcast,240,2013-03-24 16:53:00
7:53 AM,70.0,60.1,71,30.02,10.0,SW,4.6,-,N/A,,Mostly Cloudy,220,2013-03-24 17:53:00
8:53 AM,75.0,64.0,69,30.03,10.0,South,3.5,-,N/A,,Mostly Cloudy,190,2013-03-24 18:53:00
9:53 AM,75.0,64.0,69,30.04,10.0,SSE,4.6,-,N/A,,Mostly Cloudy,150,2013-03-24 19:53:00
10:53 AM,75.9,66.0,71,30.04,10.0,SSE,5.8,-,N/A,,Mostly Cloudy,150,2013-03-24 20:53:00
11:09 AM,75.9,66.0,71,30.04,10.0,SE,6.9,-,N/A,,Overcast,130,2013-03-24 21:09:00
11:19 AM,77.0,64.9,66,30.04,10.0,SE,9.2,-,N/A,,Overcast,140,2013-03-24 21:19:00
11:53 AM,78.1,64.0,62,30.03,10.0,SE,11.5,-,N/A,,Mostly Cloudy,130,2013-03-24 21:53:00
12:53 PM,78.1,66.0,66,29.99,10.0,East,11.5,-,N/A,,Scattered Clouds,90,2013-03-24 22:53:00
1:53 PM,77.0,64.9,66,29.96,10.0,East,10.4,-,N/A,,Overcast,100,2013-03-24 23:53:00
2:53 PM,77.0,64.9,66,29.95,10.0,ENE,6.9,-,N/A,,Overcast,70,2013-03-25 00:53:00
3:53 PM,75.9,66.0,71,29.94,10.0,East,10.4,-,N/A,,Overcast,100,2013-03-25 01:53:00
4:53 PM,73.0,64.9,76,29.95,10.0,ESE,11.5,-,0.00,Rain,Light Rain,110,2013-03-25 02:53:00
5:53 PM,73.9,66.0,76,29.96,10.0,East,4.6,-,0.00,,Overcast,100,2013-03-25 03:53:00
6:53 PM,72.0,66.0,81,29.99,10.0,SW,4.6,-,N/A,,Overcast,220,2013-03-25 04:53:00
7:53 PM,71.1,66.9,87,30.00,10.0,SW,4.6,-,N/A,,Overcast,230,2013-03-25 05:53:00
8:53 PM,71.1,68.0,90,30.02,7.0,North,3.5,-,0.02,Rain,Light Rain,350,2013-03-25 06:53:00
9:05 PM,71.1,66.9,87,30.03,10.0,West,4.6,-,0.00,Rain,Light Rain,280,2013-03-25 07:05:00
9:26 PM,71.1,68.0,90,30.03,10.0,Calm,Calm,-,0.01,Rain,Light Rain,0,2013-03-25 07:26:00
9:53 PM,71.1,66.9,87,30.03,10.0,SW,5.8,-,0.01,,Overcast,230,2013-03-25 07:53:00
10:53 PM,70.0,66.0,87,30.03,10.0,WSW,4.6,-,N/A,,Mostly Cloudy,240,2013-03-25 08:53:00
11:34 PM,70.0,66.0,87,30.03,10.0,WSW,3.5,-,0.00,Rain,Light Rain,240,2013-03-25 09:34:00
11:53 PM,70.0,66.0,87,30.02,10.0,West,4.6,-,0.00,,Overcast,270,2013-03-25 09:53:00